Location: Unspecified
(41.5516°N, 88.1098°W)
Time: 01:37:12
(UTC-05:00)

Cosmos 2058 - Visible Passes

Search period start: 21 August 2017 00:00
Search period end: 31 August 2017 00:00
Orbit: 562 x 586 km, 82.5° (Epoch: 20 August)

Date Brightness Start Highest point End Pass type
(mag) Time Alt. Az. Time Alt. Az. Time Alt. Az.
21 Aug 5.1 02:44:26 10° N 02:45:56 22° N 02:45:56 22° N visible
22 Aug 5.3 02:47:48 10° NNW 02:48:55 18° NNW 02:48:55 18° NNW visible
23 Aug 5.5 02:51:14 10° NNW 02:51:55 14° NNW 02:51:55 14° NNW visible
24 Aug 6.1 01:18:35 10° NNE 01:18:45 11° NNE 01:18:45 11° NNE visible
24 Aug 5.7 02:54:43 10° NNW 02:54:57 11° NNW 02:54:57 11° NNW visible
25 Aug 6.1 01:21:32 10° NNE 01:21:47 11° NNE 01:21:47 11° NNE visible
26 Aug 6.1 01:24:35 10° NNE 01:24:51 11° NNE 01:24:51 11° NNE visible
27 Aug 6.1 01:27:44 10° N 01:27:56 11° N 01:27:56 11° N visible
28 Aug 6.2 01:30:57 10° N 01:31:01 10° N 01:31:01 10° N visible
